Location: G�migny
(47.9646°N, 1.6950°E)
Time: 15:35:17
(UTC+00:00)

YAOGAN 6 - Pass Details

Date: 01 February 2020
Orbit: 465 x 506 km, 97.0° (Epoch: 17 February)

Event Time Altitude Azimuth Distance (km) Brightness Sun altitude
Rises 05:58:32 0° 25° (NNE) 2,523 6.4 -14.1°
Reaches altitude 10° 06:00:57 10° 41° (NE) 1,635 5.6 -13.7°
Maximum altitude 06:03:42 22° 93° (E) 1,085 5.4 -13.2°
Drops below altitude 10° 06:06:27 10° 146° (SE) 1,617 5.9 -12.8°
Sets 06:08:49 0° 162° (SSE) 2,487 6.6 -12.4°
